COSMOS 1275 DEB

Satellite information

Favourite Embed

Satellite Type and Status

DEBRISIN ORBIT

Key statistics

Satellite COSMOS 1275 DEB at a glance.

Uptime

16164

Days in orbit

Revolutions

≈ 14.2

Per day

Orbit

LEO

Low Earth Orbit

Inclination

83.1

Latest

Satellite identification and parameters

Extended collection of information and parameters for COSMOS 1275 DEB.

Object identification

Identified? True

Debris? True

Object name: COSMOS 1275 DEB

International designator: 1981-053UR

Object number (NORAD): 42225

Object ID (CCSDS): 42225

Country: COMMONWEALTH OF INDEPENDENT STATES (CIS)

Current information (Y/N): Y

RCS size: SMALL

Orbital parameters

Period: 101.674 minutes

Inclination: 83.1436 deg

SMA: 7216.08 km

Apoapsis: 862.988 km

Periapsis: 812.903 km

RAAN: 52.1204 deg

Eccentricy: 0.00347035

Argument of periapsis: 311.0845 deg

Mean anomaly: 48.7338 deg

Mean motion: 14.16285238 rev/day

Mean motion (dot): 0.00003217 rev/day2

B* drag term: 0.0016058109 1/REarth

Two-line elements (TLE)

Creation date: Aug. 31, 2025, 2:26 a.m.

Reference frame: TEME

Reference center: EARTH

Epoch: Aug. 30, 2025, 5:07 p.m. UTC

TLE line 0: 0 COSMOS 1275 DEB

TLE line 1: 1 42225U 81053UR 25242.71381486 .00003217 00000-0 16058-2 0 9990

TLE line 2: 2 42225 83.1436 52.1204 0034704 311.0845 48.7338 14.16285238604953

Live tracking on map

Real-time ground track for satellite COSMOS 1275 DEB.

In-orbit conjunctions

A list of the most updated potential collisions computed for object COSMOS 1275 DEB.

Target Orbit TCA Probability of collision Miss distance Type
FENGYUN 1C DEB SSO 2025-07-19 03:53:05 0.0001768546 187.0 (m) DEBRIS
FENGYUN 1C DEB SSO 2024-11-16 03:45:23 0.0001283827 432.0 (m) DEBRIS
CZ-6A DEB SSO 2024-11-12 19:57:37 0.0004589867 98.0 (m) DEBRIS
FENGYUN 1C DEB SSO 2024-11-11 21:46:49 0.0002420788 548.0 (m) DEBRIS

Associated space launch

Navigation satellite providing location information for the Tsiklon-B navigation system

COSMOS 1275 DEB was lifted into orbit during the mission ‘Kosmos-3M | Parus 27’, on board a Kosmos-3M space rocket.

The launch took place on June 4, 1981, 3:41 p.m. from 132/2.

For more information about the launch, click the button.

Launch to space Kosmos-3M | Parus 27
Kosmos-3M | Parus 27

Agency: N/A

Status: Launch Successful

Launch date: June 4, 1981, 3:41 p.m. UTC

Rocket: Kosmos-3M

Launch pad: 132/2

Location: Plesetsk Cosmodrome, Russian Federation

...

Latest news about this satellite

There are no fresh news available about this satellite. Check back as we update our databases every day.


Newsletter sign-up

Weekly statistics, charts and insights to help you stay on top of the space industry.